Location: Praha
(50.0830°N, 14.4670°E)
Time: 16:58:05
(UTC+02:00)

ISS - Pass Details

Date: 31 May 2018
Orbit: 402 x 406 km, 51.6° (Epoch: 20 June)

Event Time Altitude Azimuth Distance (km) Brightness Sun altitude
Rises 00:02:26 0° 287° (WNW) 2,323 0.5 -16.9°
Reaches altitude 10° 00:04:38 10° 277° (W) 1,460 -0.8 -17.0°
Enters shadow 00:07:11 31° 229° (SW) 730 -2.8 -17.1°
